Wind_Speed
17 17 16 16 16 15 15 16 16 16 16 19 22 22 25 30 33 35 36 38 36 34 32 32 31 30 28 27 27 25 23 22 21 21 21 20 20 20 19 19 20 19 20 22
14 13 14 16 17 17 17 17 16 17 17 18 19 21 23 26 28 30 32 34 34 33 31 31 32 30 31 29 27 23 24 25 23 21 21 21 21 21 21 21 21 21 23 24
11 11 13 16 17 18 18 17 16 15 16 16 17 20 21 22 25 27 28 29 30 30 30 30 31 29 28 26 27 25 24 24 24 23 22 22 22 22 22 22 23 23 23 24
10 11 14 15 16 16 16 17 17 16 17 18 18 19 21 21 23 25 26 27 28 29 29 29 30 30 29 27 25 23 22 23 23 23 23 23 23 23 23 23 24 25 26 25
8 10 13 14 14 15 16 17 17 16 18 20 20 20 21 22 23 24 25 26 28 29 29 29 29 29 29 27 24 23 22 23 22 22 22 23 23 24 24 25 26 27 28 27
7 9 10 11 14 15 15 17 17 16 17 20 20 22 21 22 24 25 26 26 27 28 28 28 29 29 29 29 26 23 23 24 24 24 24 25 24 26 27 28 29 30 30 30
7 7 9 12 13 14 15 17 17 16 18 18 18 22 23 22 24 25 24 25 26 28 28 29 29 28 28 27 26 24 24 24 25 25 26 27 27 28 29 29 30 30 30 31
7 6 9 12 13 15 16 16 16 14 15 17 18 21 22 23 24 24 23 23 24 25 26 27 27 26 24 24 25 25 25 25 25 26 27 28 28 29 30 30 31 32 32 32
6 3 6 10 12 15 16 16 15 14 15 16 18 19 21 21 21 22 22 22 23 23 24 24 24 25 24 24 25 26 26 26 26 26 27 28 29 30 31 32 32 33 34 35
5 2 3 7 12 14 15 16 16 16 15 15 17 18 19 20 21 22 21 21 22 22 23 23 24 24 24 24 25 25 26 27 28 29 29 30 30 31 32 33 35 36 37 37
3 2 2 6 10 12 14 15 15 15 14 16 16 17 17 18 18 18 19 21 21 20 21 23 25 26 26 26 26 26 28 28 29 30 31 32 33 34 34 35 37 37 38 39
3 2 3 6 10 13 14 14 14 14 15 16 16 17 16 15 16 16 16 15 16 19 21 22 24 25 26 27 27 28 29 30 31 32 32 33 35 36 36 37 38 38 39 40
2 2 4 7 10 12 13 12 12 13 14 14 15 17 17 16 15 14 14 15 16 18 20 23 24 25 27 28 29 29 30 31 32 33 34 34 35 36 37 37 38 39 39 40
2 2 4 8 10 10 10 10 11 12 13 14 15 16 17 16 15 15 15 14 15 17 18 20 22 24 26 27 28 30 31 32 33 33 34 35 35 36 37 38 38 38 38 39
1 2 3 7 10 9 9 10 10 12 13 15 16 16 16 16 17 16 15 13 15 17 18 19 20 22 25 26 28 29 31 32 33 34 35 35 35 35 35 35 35 35 35 35
1 2 3 6 8 8 7 8 9 11 13 14 15 16 16 16 17 16 15 15 16 17 18 18 19 21 23 25 26 28 29 31 32 32 32 33 33 33 32 33 33 33 33 33
0 0 3 4 4 4 7 8 9 11 11 12 14 15 16 16 17 16 17 16 15 16 17 18 19 21 22 23 25 26 27 28 29 29 30 30 30 30 30 30 30 30 30 30
1 1 2 2 4 4 5 6 8 9 11 12 14 15 16 16 16 16 16 16 16 17 17 18 20 21 22 23 24 25 25 25 26 26 27 27 26 26 26 26 26 26 26 27
2 2 2 3 2 3 5 7 8 10 12 13 14 14 15 16 17 17 17 16 17 18 18 18 19 20 21 22 23 23 23 23 24 24 23 23 23 23 23 23 24 24 25 25
3 3 4 4 4 6 8 9 9 10 12 13 14 14 15 15 15 16 15 15 16 16 17 18 19 20 21 21 21 22 22 22 22 21 21 21 21 22 22 22 22 23 22 22
3 4 5 6 6 8 10 11 12 12 13 14 14 14 14 14 15 15 14 14 14 15 16 17 17 18 19 19 19 20 20 20 20 20 20 20 21 21 21 21 21 21 20 20
4 5 6 7 8 9 11 12 12 13 14 14 14 14 14 14 14 13 13 13 13 13 14 15 16 17 17 17 18 18 18 18 18 18 19 19 19 20 20 20 20 19 18 17
4 5 7 8 9 10 11 12 13 13 13 14 14 14 14 14 13 13 12 12 12 12 13 14 15 15 15 15 15 16 16 16 16 17 17 18 18 18 18 18 17 16 15 15
5 6 7 8 10 11 12 13 13 14 14 15 15 14 14 13 12 12 12 12 12 12 13 13 14 14 14 14 14 14 14 14 15 16 16 16 16 16 15 15 14 14 13 13
5 6 7 9 10 11 13 13 14 14 15 15 15 14 14 13 12 12 12 12 12 13 13 14 14 13 12 12 12 12 12 12 13 14 14 13 13 13 13 12 12 11 11 11
5 6 7 9 11 12 14 15 15 15 15 15 15 15 14 13 13 13 13 13 13 13 13 13 12 11 10 9 9 10 10 11 11 10 10 10 10 9 9 9 9 9 9 9
Wind_Direction
267 260 252 244 237 227 222 220 214 204 203 220 224 220 215 217 221 226 232 237 243 249 254 258 263 265 264 264 264 251 248 244 241 237 234 236 238 241 246 250 255 258 260 260
264 252 238 229 221 216 214 210 205 198 201 216 220 218 214 212 217 224 230 235 239 244 251 258 261 263 262 263 264 256 249 244 243 239 238 242 245 247 252 257 257 262 264 265
265 243 224 216 209 208 206 205 202 200 198 209 218 221 219 217 221 226 231 236 239 243 249 256 260 264 265 262 262 252 247 243 242 244 246 247 250 255 259 260 264 266 270 273
271 238 219 213 203 206 208 205 207 204 203 206 214 228 226 227 229 232 235 238 243 246 251 255 258 264 266 265 261 254 253 249 245 247 252 257 259 261 264 268 274 272 274 275
271 242 223 212 202 207 211 208 212 213 211 212 215 229 231 230 234 236 238 242 245 247 252 256 258 261 266 268 263 258 258 258 258 261 265 267 267 266 269 272 276 279 279 281
285 250 228 209 201 205 212 213 216 220 218 219 218 229 233 233 235 237 239 244 247 248 250 254 258 261 263 265 267 261 261 263 265 268 270 271 272 273 274 275 276 279 282 287
287 249 222 205 204 205 209 212 217 223 222 224 227 232 234 236 239 241 241 245 248 249 250 252 254 259 260 263 265 263 261 262 264 266 269 272 274 277 277 277 280 282 286 289
297 249 226 214 207 202 202 209 212 222 225 229 236 239 240 242 246 248 249 248 248 248 250 251 253 258 256 259 262 263 263 263 265 267 271 273 275 277 278 280 281 283 286 288
317 263 223 215 207 205 200 202 209 222 225 235 241 246 252 253 251 253 255 251 248 248 249 251 253 256 255 257 261 263 264 265 266 270 273 274 275 277 279 280 282 284 285 286
310 279 206 206 202 202 202 203 211 224 235 245 252 261 260 258 265 259 253 253 249 248 247 250 253 256 258 260 262 264 267 268 270 273 275 276 276 279 281 282 283 283 284 285
295 271 176 184 194 198 204 211 216 225 240 253 262 271 268 269 269 267 263 255 251 250 251 252 252 256 260 262 264 267 269 272 274 275 276 277 278 280 280 281 282 283 284 285
307 266 198 180 183 199 207 215 224 236 250 263 272 277 279 283 279 277 276 264 260 260 257 256 257 260 263 266 267 269 271 273 274 276 276 277 278 279 280 281 282 283 284 285
310 250 184 186 194 206 210 220 234 246 260 273 283 286 289 294 293 289 280 275 269 267 264 261 264 266 267 268 269 270 272 273 275 276 277 278 278 279 279 281 283 284 285 287
310 250 213 204 214 223 223 230 243 258 271 279 285 291 301 296 294 293 289 281 274 272 268 266 266 266 267 269 270 272 272 273 273 275 276 277 278 279 280 282 284 286 287 288
307 260 219 206 212 225 238 243 252 271 282 288 290 293 298 295 294 294 294 284 278 277 276 272 270 268 268 269 271 272 273 273 274 276 277 279 280 282 283 284 285 286 287 289
235 254 233 212 216 225 242 261 272 283 287 292 294 296 297 297 294 294 293 291 284 280 278 276 273 272 272 273 273 274 274 274 276 277 279 281 283 284 284 285 286 287 288 290
70 292 226 232 244 258 256 276 284 292 298 297 299 302 304 304 301 298 297 296 289 284 283 280 277 277 277 277 278 278 277 276 277 280 282 284 285 284 285 285 286 287 289 290
71 27 251 270 268 283 287 301 305 308 314 313 309 307 306 306 305 304 301 297 290 286 282 281 280 278 278 280 280 279 279 279 280 282 283 284 284 284 284 285 287 288 289 290
74 35 352 347 339 327 327 327 330 324 321 321 318 314 312 311 311 308 305 300 294 289 286 283 281 281 281 281 281 281 281 281 281 282 283 284 285 285 285 285 286 287 289 290
65 42 22 8 1 350 346 345 338 330 328 326 323 321 318 316 314 313 309 302 296 291 287 284 283 284 283 283 284 283 282 283 283 283 284 285 285 285 286 287 288 289 290 292
60 42 24 16 10 4 359 354 348 345 338 331 326 325 323 321 318 316 312 307 300 296 291 288 287 287 286 285 285 285 284 283 283 284 284 285 285 285 287 288 288 289 291 291
66 43 27 19 16 7 2 358 355 350 346 340 335 331 328 326 324 323 318 312 307 301 297 294 293 292 289 287 286 285 283 282 283 285 285 285 285 286 287 288 288 289 290 291
73 42 32 26 20 14 8 3 357 352 348 345 343 339 336 333 332 331 327 320 315 310 305 302 299 297 293 288 286 285 285 285 286 287 289 288 288 288 288 288 288 288 289 290
78 53 39 29 22 17 11 6 2 358 354 352 350 348 346 343 341 340 335 329 324 317 313 310 307 302 295 290 288 287 286 288 289 289 291 291 292 292 290 289 288 289 289 290
80 57 41 30 23 18 14 10 7 4 2 2 0 358 355 353 351 347 342 338 332 326 322 318 314 308 301 294 289 292 292 293 294 293 294 295 297 297 295 294 291 289 289 294
82 58 42 31 23 20 18 15 12 11 10 10 8 7 6 4 2 359 355 350 344 337 331 327 324 319 311 302 297 300 303 303 302 302 301 302 304 307 308 304 298 293 294 298
Height
5783 5784 5785 5786 5787 5789 5790 5792 5795 5798 5800 5800 5801 5805 5809 5813 5816 5820 5823 5826 5829 5832 5835 5837 5837 5836 5836 5837 5838 5837 5839 5841 5843 5844 5846 5847 5848 5849 5850 5851 5850 5851 5851 5852
5779 5780 5780 5780 5782 5784 5786 5788 5791 5794 5795 5796 5798 5801 5804 5808 5812 5815 5819 5822 5824 5827 5830 5831 5832 5833 5831 5830 5831 5832 5833 5835 5837 5838 5840 5842 5843 5844 5844 5844 5845 5845 5846 5846
5775 5775 5775 5776 5777 5780 5782 5785 5787 5790 5791 5793 5796 5798 5800 5803 5807 5810 5813 5817 5820 5823 5825 5826 5827 5827 5825 5825 5825 5826 5828 5829 5831 5833 5835 5836 5837 5838 5838 5839 5840 5840 5840 5840
5771 5771 5771 5771 5773 5776 5779 5781 5783 5785 5788 5790 5793 5794 5797 5800 5803 5806 5809 5812 5814 5817 5819 5821 5822 5822 5822 5821 5820 5820 5822 5823 5825 5827 5828 5829 5831 5832 5833 5834 5834 5834 5834 5833
5768 5768 5767 5768 5771 5773 5775 5778 5780 5782 5784 5787 5789 5791 5794 5796 5799 5803 5805 5807 5809 5812 5813 5815 5816 5817 5817 5817 5816 5815 5817 5818 5820 5821 5822 5823 5825 5826 5827 5828 5828 5828 5827 5826
5767 5766 5766 5766 5768 5771 5773 5775 5777 5779 5782 5785 5787 5789 5791 5793 5795 5797 5800 5802 5804 5806 5808 5810 5810 5811 5812 5812 5812 5811 5812 5814 5815 5816 5817 5818 5818 5819 5820 5820 5821 5820 5819 5819
5765 5765 5764 5765 5766 5769 5771 5774 5776 5778 5780 5782 5785 5786 5788 5789 5791 5792 5794 5797 5798 5800 5802 5804 5805 5805 5805 5806 5807 5807 5808 5809 5811 5812 5812 5812 5813 5813 5813 5813 5813 5812 5811 5811
5763 5764 5764 5764 5765 5767 5769 5772 5775 5777 5778 5780 5781 5782 5784 5785 5786 5787 5789 5791 5793 5794 5796 5797 5799 5798 5799 5801 5802 5803 5803 5804 5805 5806 5806 5806 5806 5807 5806 5806 5805 5805 5803 5803
5762 5763 5762 5762 5763 5766 5768 5770 5772 5774 5776 5777 5778 5779 5780 5780 5782 5783 5784 5786 5788 5789 5791 5792 5793 5794 5795 5796 5797 5798 5798 5799 5800 5800 5800 5800 5799 5799 5799 5798 5797 5796 5795 5794
5761 5762 5762 5762 5763 5765 5767 5769 5771 5773 5774 5775 5776 5776 5777 5776 5777 5778 5779 5780 5782 5783 5785 5786 5788 5789 5790 5790 5791 5791 5792 5793 5793 5793 5792 5792 5792 5792 5791 5790 5789 5788 5786 5785
5761 5761 5762 5762 5762 5763 5766 5767 5768 5770 5772 5773 5773 5775 5774 5772 5772 5773 5774 5775 5776 5778 5779 5781 5782 5783 5784 5784 5785 5785 5785 5785 5785 5785 5784 5784 5784 5783 5783 5782 5780 5779 5777 5775
5760 5761 5761 5761 5762 5763 5764 5766 5768 5769 5770 5770 5770 5773 5770 5769 5768 5769 5770 5769 5771 5773 5774 5775 5776 5777 5778 5778 5778 5778 5778 5778 5777 5777 5776 5776 5775 5774 5773 5772 5770 5769 5767 5765
5760 5761 5761 5761 5764 5763 5763 5765 5766 5767 5768 5767 5767 5769 5766 5766 5766 5765 5765 5765 5766 5767 5768 5768 5769 5770 5770 5770 5770 5770 5769 5769 5768 5768 5767 5767 5766 5765 5764 5762 5760 5759 5757 5754
5760 5760 5760 5761 5761 5761 5762 5763 5764 5765 5765 5765 5765 5764 5763 5762 5762 5761 5760 5760 5761 5762 5762 5762 5762 5763 5763 5763 5762 5762 5761 5761 5760 5760 5759 5758 5757 5756 5754 5752 5751 5749 5746 5744
5759 5759 5759 5759 5760 5761 5761 5762 5763 5763 5762 5762 5761 5760 5760 5759 5759 5757 5756 5756 5757 5757 5756 5756 5756 5756 5755 5755 5754 5754 5753 5752 5751 5750 5750 5749 5747 5746 5744 5743 5741 5739 5737 5734
5758 5758 5758 5759 5759 5760 5760 5760 5761 5760 5759 5758 5757 5757 5756 5755 5754 5753 5752 5752 5751 5751 5750 5750 5749 5749 5748 5747 5747 5746 5745 5744 5743 5742 5741 5740 5738 5737 5735 5734 5732 5730 5728 5726
5758 5758 5758 5758 5758 5758 5759 5759 5758 5757 5756 5755 5754 5754 5751 5750 5749 5748 5747 5746 5746 5745 5744 5743 5743 5742 5741 5740 5740 5739 5737 5736 5735 5734 5733 5731 5730 5729 5727 5726 5724 5722 5720 5717
5758 5758 5758 5758 5758 5758 5760 5757 5756 5754 5753 5752 5750 5749 5747 5746 5744 5743 5742 5741 5740 5739 5738 5737 5736 5735 5734 5733 5732 5731 5730 5729 5728 5726 5725 5724 5722 5721 5720 5718 5716 5714 5712 5710
5758 5758 5758 5757 5757 5757 5757 5755 5753 5752 5750 5748 5747 5745 5743 5741 5740 5738 5737 5735 5734 5733 5732 5730 5729 5729 5728 5727 5725 5724 5723 5722 5721 5720 5718 5717 5716 5714 5713 5711 5709 5707 5705 5703
5758 5758 5758 5757 5756 5755 5755 5753 5751 5751 5748 5746 5743 5741 5739 5737 5736 5735 5732 5730 5729 5727 5726 5725 5724 5722 5721 5720 5719 5718 5717 5716 5714 5713 5712 5711 5709 5708 5706 5705 5703 5700 5698 5696
5758 5758 5757 5757 5756 5754 5753 5751 5749 5748 5747 5743 5740 5738 5736 5734 5732 5730 5728 5726 5724 5722 5721 5719 5718 5717 5715 5714 5713 5712 5710 5709 5708 5707 5706 5705 5703 5702 5700 5698 5696 5695 5693 5691
5758 5758 5757 5756 5755 5755 5752 5749 5748 5746 5743 5740 5737 5735 5733 5730 5728 5726 5724 5722 5720 5718 5717 5715 5713 5711 5710 5708 5707 5706 5705 5704 5703 5702 5700 5699 5697 5696 5694 5693 5691 5689 5687 5686
5758 5758 5757 5756 5756 5754 5751 5749 5746 5744 5741 5738 5735 5733 5730 5727 5725 5723 5720 5718 5716 5714 5712 5710 5708 5706 5705 5703 5702 5701 5700 5699 5698 5696 5695 5693 5692 5691 5689 5687 5686 5684 5682 5681
5758 5758 5757 5756 5754 5753 5751 5748 5745 5742 5740 5736 5733 5731 5728 5725 5723 5721 5718 5716 5713 5711 5709 5707 5704 5702 5700 5698 5697 5696 5695 5694 5693 5692 5690 5689 5687 5685 5684 5682 5681 5679 5678 5677
5759 5758 5757 5756 5754 5752 5750 5747 5744 5742 5739 5735 5732 5729 5726 5724 5721 5719 5716 5713 5711 5708 5705 5703 5700 5697 5695 5694 5693 5692 5691 5690 5689 5687 5686 5684 5682 5681 5679 5678 5676 5675 5674 5673
5759 5759 5758 5757 5755 5753 5750 5747 5744 5741 5738 5735 5732 5729 5726 5723 5720 5717 5714 5711 5708 5705 5702 5699 5696 5694 5692 5690 5689 5689 5688 5686 5685 5683 5682 5681 5679 5677 5676 5674 5673 5672 5671 5670